Location: Azul
(36.7830°S, 59.8500°W)
Time: 00:35:56
(UTC-03:00)

FO-29 - Pass Details

Date: 24 October 2021
Orbit: 799 x 1322 km, 98.5° (Epoch: 28 November)

Event Time Altitude Azimuth Distance (km) Brightness Sun altitude
Rises 22:22:17 0° 169° (S) 4,083 13.2 -30.9°
Reaches altitude 10° 22:24:49 10° 169° (S) 3,175 12.6 -31.2°
Maximum altitude 22:32:17 82° 255° (WSW) 1,306 10.0 -32.2°
Enters shadow 22:33:36 65° 327° (NNW) 1,414 10.1 -32.3°
